Tracking 29892 objects as of 21-Nov-2024
HD Live streaming from Space Station
objects crossing your sky now

STARLINK-5358

Track STARLINK-5358 now!
10-day predictions
STARLINK-5358 is classified as:


NORAD ID: 57143
Int'l Code: 2023-090AU
Perigee: 564.2 km
Apogee: 568.1 km
Inclination: 43.0 °
Period: 95.8 minutes
Semi major axis: 6937 km
RCS: Unknown
Launch date: June 23, 2023
Source: United States (US)
Launch site: AIR FORCE EASTERN TEST RANGE (AFETR)
Your satellite tracking list
Your tracking list is empty




NASA's NSSDC Master Catalog

Two Line Element Set (TLE):
1 57143U 23090AU  24325.97336124  .00003277  00000-0  25744-3 0  9999
2 57143  43.0120 315.7214 0002827 276.7270  83.3250 15.02554251 78168
Source of the keplerian elements: AFSPC